Content
SEND FEEDBACK

Daily
Averages
Monthly
Summary
Greece

THESSALONIKI, GREECE


Home > Europe > Greece
Elevation: 13 feet     Latitude: 40 13N     Longitude: 022 58E

WEATHER
 
SELECT A DAY
Number of Records: 102,882;   Date Range: 7/3/96 - 12/16/14
 
SHARE

PRINT THIS DATA

[ ← Previous Day ]
WEATHER ALMANAC - JULY 23, 2013
[ Next Day → ]
[ °C ]   °F
Weather ElementAverageHighLow
Temperature77.7 °F87.8 °F (3:50 pm)68 °F (5:20 am)
Dewpoint61.7 °F66.2 °F (9:50 am)53.6 °F (6:20 pm)
Humidity59.6 %88 % (5:20 am)33 % (5:20 pm)
Barometer29.90 in29.93 in (9:00 am)29.86 in (4:50 pm)
Wind Speed6 mph11.5 mph (6:20 pm)
Weather ElementAverage
Visibility6.2 mi
Wind DirectionSSE (144.9 °)

Weather ElementTotal
Precipitation---
Cooling Degree Days12.9 (Base 65)
Growing Degree Days27.9 (Base 50)
Averaged from 51 records on July 23, 2013
WEATHER CONDITIONS BREAKOUT
WIND DIRECTION BREAKOUT
WEATHER BY HOUR - JULY 23, 2013
[ °C ]   °F
Local TimeTemperatureDewpointHumidityBarometerVisibilityWind DirectionWind SpeedGust SpeedPrecipitationEventsConditions
12:50 AM71.6 °F62.6 °F73 %29.92 in6.2 miESE (110°)4.6 mphPartly Cloudy
1:20 AM71.6 °F64.4 °F78 %29.92 in6.2 miESE (120°)4.6 mphPartly Cloudy
1:50 AM71.6 °F62.6 °F73 %29.92 in6.2 miESE (120°)4.6 mphScattered Clouds
2:20 AM69.8 °F64.4 °F83 %29.92 in6.2 miESE (110°)4.6 mphScattered Clouds
2:50 AM71.6 °F64.4 °F78 %29.92 in6.2 miVariable3.5 mphScattered Clouds
3:00 AM71.0 °F64.0 °F71 %29.92 in6.0 mi°3.5 mphScattered Clouds
3:20 AM71.6 °F64.4 °F78 %29.92 in6.2 miVariable2.3 mphScattered Clouds
3:50 AM73.4 °F64.4 °F73 %29.89 in6.2 miVariable3.5 mphScattered Clouds
4:20 AM69.8 °F62.6 °F78 %29.89 in6.2 miVariable3.5 mphScattered Clouds
4:50 AM69.8 °F64.4 °F83 %29.89 in6.2 miESE (120°)5.8 mphScattered Clouds
5:20 AM68.0 °F64.4 °F88 %29.89 in6.2 miESE (120°)4.6 mphScattered Clouds
5:50 AM68.0 °F64.4 °F88 %29.89 in6.2 miESE (110°)4.6 mphScattered Clouds
6:20 AM68.0 °F62.6 °F83 %29.92 in6.2 miVariable3.5 mphScattered Clouds
6:50 AM68.0 °F62.6 °F83 %29.92 in6.2 miVariable3.5 mphScattered Clouds
7:20 AM68.0 °F62.6 °F83 %29.92 in6.2 miVariable3.5 mphScattered Clouds
7:50 AM71.6 °F62.6 °F73 %29.92 in6.2 miCalmScattered Clouds
8:20 AM73.4 °F62.6 °F69 %29.92 in6.2 miCalmScattered Clouds
8:50 AM75.2 °F64.4 °F69 %29.92 in6.2 miCalmScattered Clouds
9:00 AM75.0 °F64.0 °F59 %29.93 in6.0 miCalmPartly Cloudy
9:20 AM77.0 °F64.4 °F65 %29.92 in6.2 miCalmScattered Clouds
9:50 AM77.0 °F66.2 °F69 %29.92 in6.2 miWest (270°)6.9 mphScattered Clouds
10:20 AM77.0 °F66.2 °F69 %29.92 in6.2 miWest (270°)6.9 mphPartly Cloudy
10:50 AM78.8 °F64.4 °F61 %29.92 in6.2 miWest (270°)8.1 mphPartly Cloudy
11:20 AM82.4 °F64.4 °F54 %29.92 in6.2 miWest (270°)8.1 mphPartly Cloudy
11:50 AM82.4 °F64.4 °F54 %29.92 in6.2 miWest (270°)8.1 mphPartly Cloudy
12:20 PM82.4 °F64.4 °F54 %29.92 in6.2 miWest (270°)8.1 mphPartly Cloudy
12:50 PM82.4 °F59.0 °F45 %29.92 in6.2 miWest (270°)8.1 mphPartly Cloudy
1:20 PM84.2 °F60.8 °F45 %29.92 in6.2 miWest (270°)8.1 mphPartly Cloudy
1:50 PM84.2 °F60.8 °F45 %29.89 in6.2 miWNW (290°)8.1 mphPartly Cloudy
2:20 PM84.2 °F62.6 °F48 %29.89 in6.2 miWNW (290°)9.2 mphPartly Cloudy
2:50 PM86.0 °F62.6 °F45 %29.89 in6.2 miWest (280°)8.1 mphPartly Cloudy
3:00 PM85.0 °F62.0 °F36 %29.91 in6.0 miWest (280°)8.1 mphScattered Clouds
3:20 PM86.0 °F59.0 °F40 %29.89 in6.2 miWest (270°)8.1 mphPartly Cloudy
3:50 PM87.8 °F59.0 °F38 %29.89 in6.2 miWest (280°)8.1 mphPartly Cloudy
4:20 PM86.0 °F55.4 °F35 %29.89 in6.2 miSSW (200°)10.4 mphPartly Cloudy
4:50 PM86.0 °F55.4 °F35 %29.86 in6.2 miSSW (210°)9.2 mphPartly Cloudy
5:20 PM87.8 °F55.4 °F33 %29.86 in6.2 miSSW (200°)9.2 mphPartly Cloudy
5:50 PM87.8 °F55.4 °F33 %29.86 in6.2 miSSW (200°)9.2 mphPartly Cloudy
6:20 PM86.0 °F53.6 °F33 %29.86 in6.2 miSouth (190°)11.5 mphPartly Cloudy
6:50 PM86.0 °F53.6 °F33 %29.86 in6.2 miSouth (190°)11.5 mphPartly Cloudy
7:20 PM84.2 °F55.4 °F37 %29.86 in6.2 miSSW (200°)11.5 mphPartly Cloudy
7:50 PM82.4 °F59.0 °F45 %29.86 in6.2 miSouth (190°)10.4 mphPartly Cloudy
8:20 PM80.6 °F60.8 °F51 %29.86 inSouth (180°)11.5 mphClear
8:50 PM80.6 °F60.8 °F51 %29.86 inSouth (190°)9.2 mphClear
9:00 PM80.0 °F61.0 °F42 %29.87 in6.0 miSouth (190°)9.2 mph
9:20 PM78.8 °F60.8 °F54 %29.86 inSouth (190°)9.2 mphClear
9:50 PM77.0 °F60.8 °F57 %29.89 inCalmClear
10:20 PM75.2 °F60.8 °F61 %29.89 inCalmClear
10:50 PM73.4 °F62.6 °F69 %29.89 inVariable3.5 mphClear
11:20 PM73.4 °F62.6 °F69 %29.89 inVariable3.5 mphClear
11:50 PM71.6 °F62.6 °F73 %29.89 inESE (110°)4.6 mphClear
Hourly data recorded from LGTS, located miles away from Thessaloniki, Greece







STORIES FROM OUR PARTNERS